Simultaneous Nadir Overpasses (SNOs) Predictions

Prediction of SNOs between GOES-14 and NPP Satellite Orbit:

Table of predicted SNOs for the next 14.0 days since TLE Epoch: 1/8/2022
Index Date Time (GOES-14) GOES-14 Lat,Lon NPP Lat,Lon Distance(km) Time Diff (sec)
1 01/09/2022 08:24:38 -0.00,-104.57 0.14,-105.10 60.27 80
2 01/10/2022 08:05:52 0.00,-104.58 -0.91,-100.57 457.26 80
3 01/11/2022 20:27:45 0.01,-104.25 -0.34,-105.85 182.23 80
4 01/12/2022 20:11:39 0.00,-104.26 0.65,-101.31 335.44 80
5 01/14/2022 08:30:46 -0.00,-104.60 0.42,-106.60 227.24 80
6 01/15/2022 08:14:40 0.00,-104.60 -0.56,-102.05 290.22 80
7 01/16/2022 20:33:53 0.00,-104.27 -0.68,-107.34 349.59 80
8 01/17/2022 20:17:47 -0.00,-104.27 0.31,-102.80 167.81 80
9 01/19/2022 08:36:54 0.00,-104.61 0.76,-108.08 395.06 80
10 01/20/2022 08:20:47 0.00,-104.62 -0.23,-103.54 122.47 80
